TimeCDT,TemperatureF,Dew PointF,Humidity,Sea Level PressureIn,VisibilityMPH,Wind Direction,Wind SpeedMPH,Gust SpeedMPH,PrecipitationIn,Events,Conditions,WindDirDegrees,DateUTC
12:53 AM,33.1,28.9,85,29.86,10.0,NW,12.7,-,N/A,,Overcast,320,2013-04-07 05:53:00
1:53 AM,32.0,28.0,85,29.86,10.0,North,11.5,-,N/A,,Overcast,350,2013-04-07 06:53:00
2:53 AM,32.0,28.0,85,29.86,10.0,North,10.4,-,N/A,,Overcast,350,2013-04-07 07:53:00
3:53 AM,32.0,28.0,85,29.87,10.0,North,6.9,-,N/A,,Overcast,350,2013-04-07 08:53:00
4:53 AM,32.0,27.0,82,29.89,10.0,NNW,9.2,-,N/A,,Overcast,330,2013-04-07 09:53:00
5:53 AM,32.0,28.0,85,29.90,10.0,NNW,5.8,-,N/A,,Overcast,330,2013-04-07 10:53:00
6:53 AM,32.0,28.0,85,29.92,10.0,NW,4.6,-,N/A,,Overcast,310,2013-04-07 11:53:00
7:53 AM,32.0,27.0,82,29.93,10.0,Calm,Calm,-,N/A,,Overcast,0,2013-04-07 12:53:00
8:30 AM,32.0,28.4,87,29.88,10.0,Calm,Calm,-,N/A,,Overcast,0,2013-04-07 13:30:00
8:53 AM,32.0,28.0,85,29.93,10.0,Calm,Calm,-,N/A,,Overcast,0,2013-04-07 13:53:00
9:26 AM,33.8,26.6,75,29.88,10.0,Calm,Calm,-,N/A,,Overcast,0,2013-04-07 14:26:00
9:53 AM,34.0,27.0,75,29.93,10.0,Calm,Calm,-,N/A,,Overcast,0,2013-04-07 14:53:00
10:53 AM,33.1,27.0,78,29.95,10.0,SSW,3.5,-,N/A,,Overcast,210,2013-04-07 15:53:00
11:53 AM,34.0,28.0,79,29.94,10.0,SSE,3.5,-,N/A,,Overcast,150,2013-04-07 16:53:00
12:41 PM,35.6,28.4,75,29.88,10.0,SE,6.9,-,N/A,,Overcast,130,2013-04-07 17:41:00
12:53 PM,34.0,28.0,79,29.92,10.0,SSE,6.9,-,N/A,,Overcast,150,2013-04-07 17:53:00
1:53 PM,35.1,28.9,78,29.91,10.0,SE,5.8,-,N/A,,Overcast,140,2013-04-07 18:53:00
2:53 PM,36.0,28.9,76,29.87,10.0,SE,9.2,-,N/A,,Overcast,130,2013-04-07 19:53:00
3:53 PM,37.0,30.0,76,29.85,10.0,SE,9.2,-,N/A,,Overcast,130,2013-04-07 20:53:00
4:53 PM,39.0,30.9,73,29.84,10.0,SE,10.4,-,N/A,,Mostly Cloudy,140,2013-04-07 21:53:00
5:29 PM,39.2,32.0,75,29.79,10.0,SE,11.5,-,N/A,,Scattered Clouds,130,2013-04-07 22:29:00
5:53 PM,39.0,32.0,76,29.83,10.0,SE,10.4,-,N/A,,Scattered Clouds,130,2013-04-07 22:53:00
6:53 PM,37.9,32.0,79,29.86,10.0,South,6.9,-,N/A,,Overcast,170,2013-04-07 23:53:00
7:53 PM,37.9,33.1,83,29.83,9.0,ESE,3.5,-,N/A,,Overcast,110,2013-04-08 00:53:00
8:05 PM,37.4,33.8,87,29.78,10.0,Calm,Calm,-,N/A,,Overcast,0,2013-04-08 01:05:00
8:53 PM,37.0,34.0,89,29.82,4.0,East,6.9,-,0.02,Rain,Light Rain,80,2013-04-08 01:53:00
9:26 PM,37.4,35.6,93,29.78,5.0,ESE,3.5,-,0.03,Rain,Light Rain,110,2013-04-08 02:26:00
9:53 PM,37.0,35.1,93,29.82,3.0,East,5.8,-,0.06,Rain,Light Rain,90,2013-04-08 02:53:00
10:53 PM,36.0,34.0,93,29.81,4.0,NE,6.9,-,0.03,,Overcast,50,2013-04-08 03:53:00
11:05 PM,35.6,35.6,100,29.76,2.5,NE,5.8,-,0.01,,Overcast,40,2013-04-08 04:05:00
11:21 PM,35.6,33.8,93,29.76,1.8,NE,8.1,-,0.02,,Overcast,40,2013-04-08 04:21:00
11:35 PM,35.6,33.8,93,29.75,2.5,NE,8.1,-,0.02,,Overcast,50,2013-04-08 04:35:00
11:43 PM,35.6,33.8,93,29.75,3.0,NE,8.1,-,0.02,,Overcast,50,2013-04-08 04:43:00
11:53 PM,36.0,34.0,93,29.80,4.0,NE,9.2,-,0.02,,Overcast,50,2013-04-08 04:53:00